Theta_e
351 346 344 340 343 347 347 349 347 348 348 347 347 343 337 338 340 339 340 339 337 333 331 332 333 336 335 335 333 330 328 326 327 327 327 330 334 337 339 340 340 339 339 339 340 341 340 337 335 337 340 342 343 342 342 342 341 341 340 340 340 339 338 337 336 336 336 335 335 335 335 335 335 335 334 333 332 328 329 330 327 328 329 330 332
350 346 343 340 342 344 346 347 346 348 348 347 346 343 339 338 339 339 340 339 337 333 330 332 333 335 336 335 332 330 328 329 332 334 336 337 339 339 340 341 341 341 341 341 341 342 339 335 336 340 342 342 342 342 341 342 341 340 339 339 338 338 337 336 335 335 334 333 334 334 334 334 334 335 334 334 332 326 327 328 326 329 331 331 331
350 346 342 339 339 339 343 346 346 347 348 347 346 344 342 338 339 339 340 340 337 333 330 331 333 336 336 335 331 328 328 332 337 338 340 340 340 339 339 340 340 341 341 341 341 342 339 336 338 341 342 341 341 342 341 341 340 339 338 337 336 335 335 335 335 335 334 334 333 333 332 333 334 334 334 334 331 326 326 329 328 330 331 330 327
350 347 342 339 337 337 340 344 346 347 347 347 346 345 342 339 339 339 339 340 338 334 331 331 334 336 336 334 330 327 327 332 337 339 340 340 340 339 340 339 340 340 340 340 341 340 339 339 340 341 342 341 341 341 341 339 338 337 335 333 331 330 329 329 332 334 334 333 331 331 330 331 333 334 334 333 330 326 325 328 329 330 331 328 325
350 349 344 340 337 336 336 339 344 345 346 345 345 345 342 339 338 339 339 340 340 336 331 331 335 336 335 332 328 327 327 329 335 339 339 339 339 339 340 339 339 339 339 340 341 339 339 341 341 341 342 342 341 340 339 337 336 333 330 327 326 326 324 324 326 330 332 330 329 330 330 330 333 334 333 332 330 327 326 328 329 330 330 328 327
350 351 347 341 337 335 334 334 336 342 344 344 344 343 341 339 338 339 340 341 340 337 332 332 336 337 335 331 328 329 330 331 335 338 339 338 338 338 339 338 338 339 339 339 339 340 341 342 342 342 341 342 339 339 338 335 333 331 328 327 327 327 327 327 325 325 326 327 328 330 331 330 333 334 333 332 330 327 328 330 331 330 328 327 328
351 350 348 340 336 336 334 333 334 338 342 343 342 342 341 339 341 342 343 344 341 337 332 333 337 337 334 330 329 330 333 336 338 338 337 337 337 337 338 338 338 339 340 339 340 342 342 342 342 342 341 341 338 338 336 332 332 332 329 328 328 329 330 329 327 326 326 326 327 329 331 332 333 334 333 332 331 329 330 332 331 329 327 328 329
350 351 347 340 337 337 335 335 335 335 338 340 342 343 342 342 344 345 345 346 343 339 333 333 338 337 332 330 330 331 334 337 338 338 337 337 337 337 337 338 339 340 341 341 342 343 343 342 341 341 341 339 336 333 330 328 333 334 331 329 329 330 330 330 329 329 329 328 327 327 330 333 334 334 333 332 332 331 331 331 330 328 327 329 328
350 350 346 342 338 336 336 334 334 334 336 340 343 345 344 344 345 345 345 345 344 341 335 335 339 337 332 330 331 332 336 338 338 338 338 338 338 338 337 338 339 340 341 342 343 343 342 341 340 341 338 334 330 326 325 329 333 335 333 331 331 332 332 332 331 330 330 330 330 329 328 331 333 333 333 333 332 331 330 330 329 327 328 328 326
350 349 346 345 339 336 335 333 333 333 336 341 345 345 344 345 345 344 344 344 344 341 337 336 339 338 332 331 331 330 334 337 338 338 338 338 338 338 337 338 340 340 340 342 343 342 341 340 339 339 334 328 325 325 328 331 332 334 335 333 333 334 334 333 334 332 331 331 331 331 330 329 329 330 333 333 332 332 331 330 329 327 328 326 326
349 349 347 344 340 337 335 333 332 332 336 341 344 345 345 345 344 345 343 343 344 342 338 337 340 338 332 332 331 328 331 335 337 336 335 335 337 339 338 338 339 340 340 341 342 342 341 340 339 337 333 327 327 330 330 329 328 331 332 331 332 332 334 334 334 334 333 332 332 333 333 332 328 329 332 334 332 332 331 330 329 327 327 326 326
350 349 346 344 339 337 335 334 331 332 334 338 342 344 345 343 343 344 343 343 343 342 339 339 340 336 332 333 332 329 331 333 333 332 332 333 336 338 338 337 338 339 339 339 341 341 340 339 339 338 334 328 329 332 330 328 328 329 328 329 330 331 331 332 333 333 333 333 333 333 334 334 332 329 331 334 333 332 331 330 329 327 327 327 327
350 348 346 344 338 338 335 334 332 332 332 336 342 343 345 343 343 343 342 343 342 342 340 341 341 336 334 334 333 331 333 333 330 328 329 330 334 337 337 338 338 338 338 339 340 340 341 340 339 339 335 330 329 330 330 331 331 330 329 329 329 329 330 332 333 332 332 333 333 333 333 334 334 332 331 333 333 331 331 330 329 328 327 326 326
349 348 347 342 339 340 337 335 332 332 332 336 341 342 345 343 343 343 342 342 342 341 340 342 340 336 335 335 334 333 335 335 330 326 325 326 331 335 336 337 337 337 338 338 338 338 340 340 339 340 335 330 331 329 328 329 329 329 328 328 328 328 331 333 331 332 332 332 332 332 333 332 334 334 330 332 334 332 331 330 329 328 327 327 327
346 347 346 342 339 340 338 335 332 332 332 336 341 342 344 343 342 342 342 342 341 341 340 342 339 335 336 336 335 335 336 336 333 327 326 326 330 335 334 336 337 337 338 338 338 337 338 340 339 339 336 333 331 328 326 326 325 326 327 328 329 329 331 331 330 332 332 332 332 331 332 332 333 334 331 332 334 332 331 329 329 328 328 327 327
344 345 346 342 339 339 338 337 335 336 336 337 340 342 342 342 343 341 341 342 341 340 340 341 339 336 337 337 336 336 338 338 335 331 330 331 333 335 334 335 337 336 336 337 337 337 336 339 339 338 337 335 333 329 325 325 325 327 328 328 329 329 331 332 330 331 332 333 333 331 331 331 333 333 331 333 333 332 331 329 329 328 327 327 326
346 344 345 342 340 340 338 338 338 340 340 340 341 342 343 341 342 341 340 341 340 339 339 339 338 337 337 337 337 337 339 339 337 334 334 336 335 335 334 334 335 336 335 335 336 337 335 336 338 338 337 336 333 329 325 326 327 328 327 327 328 329 331 332 331 331 332 334 334 333 331 330 332 331 331 334 333 332 331 329 329 328 327 327 326
347 345 344 342 340 340 338 337 339 341 341 342 342 342 342 341 341 341 340 340 340 340 339 339 338 337 337 338 337 337 339 339 337 334 335 337 337 335 335 334 333 334 334 334 336 336 335 334 335 335 336 335 331 328 326 327 328 327 327 327 327 327 329 330 331 332 334 333 332 333 331 331 331 329 331 334 333 332 330 329 329 328 327 327 326
348 347 344 343 341 341 340 338 339 341 340 341 343 342 342 342 341 341 340 339 340 340 338 339 338 336 337 337 337 337 338 339 337 334 333 336 336 336 337 335 332 333 334 334 335 334 333 334 334 333 334 333 329 326 326 327 328 327 326 326 326 326 327 330 333 334 335 333 331 332 331 331 330 328 332 334 332 331 329 329 329 328 327 326 325
348 348 345 344 342 341 342 340 340 341 339 340 342 342 341 341 340 340 341 340 341 340 339 339 337 335 337 337 337 338 338 339 338 335 333 334 335 335 336 334 331 332 332 332 333 332 332 333 332 331 331 329 327 326 327 327 327 327 327 326 326 326 325 329 333 335 335 334 332 331 332 331 329 330 333 333 332 331 330 329 328 328 327 326 325
348 347 347 345 343 342 342 341 341 341 340 340 342 342 341 341 340 340 340 340 340 339 340 337 334 336 338 338 338 337 338 339 339 337 334 333 333 334 333 332 332 334 333 331 332 332 331 332 331 330 330 328 326 326 326 327 327 327 326 326 326 325 325 328 333 335 335 334 333 331 332 331 329 330 332 332 332 331 330 329 328 328 327 326 325
347 347 347 346 345 344 344 343 342 342 341 340 341 341 341 341 341 340 340 339 339 340 341 337 334 337 339 339 338 336 337 338 338 338 335 334 333 333 333 331 331 334 334 332 332 333 331 330 331 330 330 329 327 325 326 326 327 327 326 326 325 325 326 329 332 335 335 333 334 332 332 331 330 330 329 331 333 331 331 330 328 328 326 326 325
347 347 347 346 346 346 345 345 343 343 341 341 341 341 342 342 341 340 339 339 340 341 341 338 335 338 339 339 337 335 336 337 338 338 336 335 333 333 335 333 332 333 334 333 331 331 332 331 331 331 331 329 327 325 326 326 326 326 326 326 325 326 329 331 332 336 335 332 333 332 332 331 331 330 326 330 333 331 332 330 329 328 326 326 326
347 347 347 347 346 346 346 346 344 344 343 342 341 340 341 342 342 340 340 340 340 341 339 337 336 337 339 339 338 334 333 336 338 339 338 336 334 334 335 336 334 333 333 333 331 328 330 331 331 330 330 329 327 326 325 325 326 326 325 325 324 326 330 332 332 335 334 331 332 332 332 331 331 330 325 329 333 332 332 331 329 328 326 325 326
347 346 347 346 346 346 346 346 345 344 343 342 342 341 340 340 343 342 340 341 340 341 340 337 336 337 338 338 338 335 331 334 337 339 339 337 335 334 335 336 337 336 334 334 333 328 325 326 329 329 328 328 328 326 326 325 325 325 325 325 324 325 328 331 332 334 334 332 330 331 332 331 331 328 324 328 333 332 331 331 330 329 327 325 326
346 346 346 345 346 346 346 346 345 344 343 343 342 341 340 340 343 342 341 341 340 339 340 338 336 336 337 337 339 337 332 332 335 338 339 339 337 335 334 334 336 336 335 334 333 331 327 324 324 327 328 328 328 328 326 325 325 324 324 324 324 324 326 330 331 333 334 333 330 330 331 330 329 326 322 326 332 333 331 331 329 329 329 326 326
347 346 346 345 345 346 346 346 346 345 343 343 343 342 340 340 342 342 341 341 340 339 340 339 338 337 337 337 338 338 335 332 334 337 338 338 338 337 334 333 334 335 336 336 333 331 330 327 325 325 326 326 327 327 327 326 326 325 324 323 323 323 324 327 330 332 333 333 332 330 330 330 327 323 321 324 330 333 331 331 329 329 329 327 326
347 346 347 346 345 346 346 346 346 345 344 343 343 342 341 340 340 341 343 341 341 340 339 340 339 339 338 337 337 337 336 334 333 335 337 338 338 338 336 333 332 334 336 336 335 333 331 330 327 326 326 325 324 324 324 325 325 324 323 322 322 323 322 325 329 331 331 332 333 330 328 328 326 321 321 323 328 333 332 331 330 330 329 328 326
346 346 347 347 346 346 346 346 347 346 345 344 343 342 341 340 339 340 342 341 340 341 339 340 340 340 339 338 337 337 337 336 334 333 334 336 337 338 338 337 334 333 334 335 335 334 334 332 330 329 328 327 327 325 324 323 323 322 322 322 322 322 321 323 328 328 328 330 331 331 328 326 325 322 322 323 327 332 333 331 331 330 329 329 328
345 346 345 344 343 344 345 347 347 347 345 344 342 342 342 341 339 338 339 339 339 340 340 340 340 340 339 338 338 337 337 336 335 334 333 334 334 336 337 338 337 334 334 333 334 334 335 335 334 332 330 329 329 328 327 325 324 322 322 322 321 321 321 323 325 327 328 329 329 332 330 326 325 323 322 323 326 332 332 331 332 331 330 329 329
346 345 343 337 335 342 345 346 346 346 346 344 339 339 341 341 340 338 338 338 338 339 339 340 339 339 339 339 338 338 338 337 336 335 334 334 333 334 335 337 338 337 336 334 334 335 335 336 336 334 332 331 330 329 329 329 328 326 324 324 323 322 321 323 326 329 330 330 329 330 331 329 327 325 322 322 324 330 332 332 333 332 331 330 329
347 346 344 340 340 343 344 344 344 345 345 344 338 337 340 341 341 340 339 338 338 338 338 338 338 338 338 339 339 338 339 338 337 336 335 335 334 334 335 336 337 338 338 337 335 335 335 336 336 335 333 331 332 331 330 331 331 330 328 327 328 327 326 328 330 331 330 330 329 330 331 331 330 327 324 321 321 327 332 333 333 333 332 331 330
347 346 344 341 342 342 342 343 343 343 344 345 343 340 340 341 342 341 341 340 339 338 338 338 337 337 337 338 339 339 339 339 338 337 337 336 335 335 335 336 336 336 337 337 337 337 336 336 336 336 335 332 332 332 332 332 332 332 331 330 330 330 329 331 331 330 330 330 330 330 331 332 332 330 326 323 320 323 330 332 332 333 333 331 330
346 344 343 342 342 341 341 342 342 343 343 344 343 340 339 341 342 342 342 341 340 339 338 338 338 337 337 338 339 339 339 339 338 338 337 336 336 335 335 335 336 336 336 337 337 337 337 337 336 337 337 334 333 334 334 334 333 332 332 331 331 331 331 331 330 329 329 329 330 330 332 332 332 332 328 326 322 320 324 328 329 333 334 332 331
344 342 341 340 340 339 339 340 340 341 341 342 342 340 339 339 340 341 341 342 341 341 340 340 339 339 339 339 340 339 339 339 339 339 338 337 337 336 335 335 336 336 337 337 337 337 337 337 337 337 337 336 334 334 335 335 334 333 332 331 331 331 331 330 330 330 329 329 330 330 332 333 333 333 330 328 326 322 321 322 324 329 332 332 333
342 340 339 339 339 338 338 339 339 340 339 340 340 340 339 338 339 340 340 341 341 341 341 340 340 340 340 340 340 340 339 339 339 339 338 338 337 337 336 336 336 336 337 337 337 337 337 337 337 338 337 336 336 335 335 335 335 333 331 331 330 330 330 330 329 330 330 329 330 332 332 333 333 333 332 330 328 325 323 322 322 324 328 330 333
340 339 338 338 338 338 338 338 338 339 339 339 339 339 339 339 339 339 339 340 341 342 341 341 341 341 341 341 341 340 340 339 339 339 339 338 338 337 337 336 337 336 337 338 337 337 337 337 337 337 337 336 336 335 335 335 334 332 331 331 330 329 329 329 330 330 330 329 330 332 333 333 334 333 333 331 330 329 326 325 324 323 325 328 330
338 338 337 337 337 337 337 338 338 338 338 338 338 339 339 339 339 339 339 339 341 342 342 342 342 342 342 341 341 340 340 340 340 339 339 338 338 338 337 337 337 337 337 337 336 336 336 336 337 337 336 336 336 335 334 333 332 331 330 331 330 329 329 329 329 331 330 330 331 333 333 334 334 334 334 334 333 331 329 328 327 325 324 324 326
336 336 336 336 336 336 337 337 337 337 337 338 338 338 338 339 338 339 340 340 341 342 341 342 342 342 342 341 341 340 341 341 340 340 339 338 338 338 338 338 337 337 337 337 336 336 335 336 336 336 335 335 335 335 335 334 333 331 331 332 330 329 329 329 331 332 331 331 332 333 334 334 334 334 335 334 334 333 332 331 331 328 327 325 324
335 335 335 335 335 335 335 335 336 336 337 337 338 337 337 338 339 339 340 341 342 342 342 342 341 341 341 341 340 340 340 340 340 339 339 339 339 338 338 338 337 336 336 337 336 336 335 334 335 335 334 334 334 335 336 336 334 332 333 333 332 330 330 330 332 332 331 332 333 334 334 334 334 335 336 335 335 335 334 334 334 333 332 330 326
333 334 334 334 333 333 333 334 334 335 336 336 336 336 336 337 338 338 339 339 339 340 340 341 341 341 340 340 340 340 340 339 340 340 338 339 340 339 338 337 337 336 336 336 336 336 335 334 334 335 335 335 335 334 335 334 333 333 334 335 334 333 333 333 333 332 333 333 333 334 334 334 335 335 336 335 335 336 336 336 335 336 335 334 332
331 332 333 333 333 333 333 333 333 333 334 334 334 334 335 335 335 336 335 336 336 337 337 338 339 339 340 340 339 340 340 339 339 339 339 339 339 339 338 337 336 336 336 336 335 335 335 335 335 335 336 336 335 334 334 333 332 332 333 336 337 336 335 335 334 333 333 334 334 334 334 335 335 335 336 336 336 336 336 336 336 336 336 336 335
329 330 330 331 332 332 332 332 333 333 333 333 333 333 334 334 334 334 334 335 334 335 336 335 336 338 339 339 339 339 340 339 339 338 339 339 339 339 338 337 337 336 337 336 336 335 335 337 336 336 336 336 335 334 334 333 332 331 332 336 339 339 339 336 335 335 334 334 335 335 335 335 336 336 336 336 336 336 336 336 336 335 336 336 336
329 329 328 329 329 330 330 330 331 331 332 333 333 332 333 333 333 333 333 334 334 335 336 336 336 337 338 339 339 338 338 338 338 337 338 338 338 338 338 338 337 337 336 336 336 335 336 337 336 337 336 335 335 333 334 333 332 331 331 334 334 336 341 338 335 336 336 335 335 335 335 335 336 336 336 336 337 336 336 336 335 335 336 336 336
330 329 329 328 327 327 327 327 328 328 329 330 330 330 331 331 331 331 332 332 333 333 334 335 336 336 337 337 337 337 338 338 338 337 337 337 337 338 337 338 338 337 336 335 336 336 336 337 336 337 336 335 335 333 333 333 332 331 330 334 334 336 342 336 333 337 336 336 337 336 336 336 336 336 336 337 336 336 336 336 335 335 335 336 336
330 328 326 322 319 318 317 317 318 320 322 322 324 325 327 329 329 329 330 330 330 331 331 332 332 333 334 334 335 335 335 337 337 336 336 336 337 337 337 337 337 336 335 335 336 335 336 336 336 336 335 336 335 334 334 332 333 332 330 332 335 337 340 335 335 340 337 335 337 337 337 336 336 337 336 337 336 336 336 336 336 335 335 335 335
326 324 320 314 310 309 308 307 307 308 309 310 312 314 318 322 325 326 327 326 327 327 328 329 330 330 331 331 331 332 332 334 335 335 336 336 336 336 337 337 336 336 335 334 335 335 336 336 337 336 335 335 335 334 334 332 332 333 331 332 332 332 334 334 337 340 339 337 336 336 337 338 338 337 337 337 336 336 336 337 337 335 335 334 334
318 315 312 309 307 305 305 304 304 304 304 304 305 305 307 311 314 318 320 320 322 323 324 326 327 328 329 330 331 330 330 331 332 333 334 335 335 336 336 336 336 335 335 334 334 334 335 336 336 336 336 334 335 334 334 333 332 332 332 333 334 333 332 334 334 335 339 341 339 338 336 336 337 338 337 338 336 336 336 336 337 336 335 334 334
310 308 307 306 305 304 303 303 302 302 302 302 302 303 302 303 305 307 310 311 314 316 317 320 322 324 326 327 328 329 330 331 332 332 332 333 334 335 335 336 336 336 335 334 334 334 334 335 335 336 335 334 334 334 334 333 333 333 332 332 334 334 333 334 332 331 335 336 340 344 339 336 338 337 337 338 336 336 336 336 337 336 335 334 334
306 305 304 304 302 302 302 301 301 300 300 300 300 301 300 300 301 301 301 302 304 306 308 311 315 319 322 322 323 325 327 329 331 332 332 333 333 334 335 335 336 336 335 335 334 334 334 334 334 334 335 335 334 334 334 334 334 333 332 331 332 333 333 333 332 331 332 332 335 340 336 335 339 336 335 337 336 336 336 336 336 335 335 335 334
305 304 304 303 302 302 301 301 302 301 300 300 300 300 299 299 300 299 299 299 299 300 300 303 306 311 316 318 320 322 324 325 328 331 332 333 333 333 333 334 335 335 335 335 334 334 334 334 334 334 334 335 334 334 333 334 334 333 332 331 331 332 333 333 333 332 333 333 335 338 333 332 336 335 334 337 336 336 337 336 336 336 335 335 335
Wind_Speed
13 20 22 21 21 19 19 17 17 17 18 18 18 18 19 18 17 17 16 16 15 15 14 14 13 12 11 10 9 9 9 10 11 12 12 12 12 12 12 12 12 12 12 12 11 11 10 9 8 8 9 10 10 11 10 11 13 13 12 11 11 11 10 9 8 8 8 8 8 9 8 9 8 9 10 10 9 7 7 7 7 7 6 8 9
19 20 21 21 21 20 19 18 17 17 18 18 18 17 18 17 16 16 15 15 15 15 14 14 13 11 10 9 8 9 9 10 11 11 11 10 10 11 12 12 12 11 11 11 11 10 9 9 8 8 9 10 11 11 12 12 12 12 12 11 12 11 10 9 8 8 8 8 8 8 8 8 8 8 8 9 9 6 6 7 8 7 7 9 10
22 21 21 21 21 19 19 17 17 17 18 17 17 17 16 16 15 14 14 14 14 15 14 14 12 11 9 8 8 8 9 10 10 10 11 10 10 11 11 11 10 11 11 10 10 10 9 9 9 9 9 11 12 11 12 12 12 11 11 12 12 11 10 9 9 8 8 8 8 8 8 7 8 8 8 8 7 6 7 8 8 8 9 8 7
22 20 20 20 20 19 18 17 17 17 17 17 16 15 15 14 14 14 14 13 14 14 14 13 11 10 9 8 8 8 9 10 10 10 10 9 9 10 11 10 9 10 10 9 9 9 9 9 9 9 10 12 12 11 13 12 11 11 11 12 11 11 10 9 8 8 8 8 8 9 9 8 7 8 7 7 6 7 7 7 7 8 9 7 6
21 19 20 20 20 19 18 17 17 16 16 16 16 15 15 14 13 13 13 13 13 13 13 13 11 9 8 7 8 8 9 10 10 10 10 9 8 9 9 9 8 8 8 8 8 8 8 9 10 10 10 12 13 12 12 11 11 11 11 12 13 13 11 9 8 8 7 7 8 8 8 8 8 7 7 6 6 6 7 7 7 8 8 7 8
20 19 20 21 21 21 19 19 18 17 17 17 16 16 15 14 14 13 13 13 13 13 13 12 10 9 7 8 8 9 9 10 10 10 10 9 8 7 7 7 6 6 6 8 8 8 8 9 9 10 11 12 13 13 11 11 11 12 13 14 14 13 12 10 9 7 6 7 8 7 8 8 9 7 6 6 6 5 6 7 7 8 7 6 9
18 19 20 22 21 21 19 19 18 17 17 17 16 15 15 14 13 12 12 12 12 12 12 12 10 8 8 8 8 9 9 9 10 9 9 9 8 7 6 5 4 5 5 7 8 7 8 9 10 12 12 12 12 12 11 12 12 13 14 13 13 12 11 10 9 8 6 6 6 7 8 9 9 7 6 6 5 5 6 7 8 7 6 7 9
18 18 20 21 20 20 19 18 17 17 16 16 16 15 14 14 13 12 11 11 12 12 12 11 9 8 8 8 7 8 8 9 9 9 8 8 8 6 5 4 4 4 5 5 6 6 8 11 12 13 12 11 11 10 11 12 13 13 13 12 11 10 9 8 7 7 6 5 5 5 7 9 9 7 7 6 6 6 6 7 8 7 7 8 8
18 19 20 20 20 20 19 18 17 16 15 15 16 15 14 13 13 12 11 11 11 11 12 11 9 8 8 7 7 8 8 9 9 8 7 8 7 5 5 4 4 4 3 3 5 7 10 12 12 12 11 9 9 10 11 13 14 12 11 10 9 8 7 6 5 5 5 4 4 4 5 8 9 8 7 6 7 7 6 7 8 8 8 8 7
19 20 20 21 20 20 20 19 18 17 16 15 15 15 14 13 12 12 11 11 10 12 12 11 9 8 8 8 7 8 8 9 8 7 8 8 7 5 4 5 4 2 2 3 5 8 11 12 11 11 9 8 8 11 12 13 13 11 10 8 6 5 5 5 5 5 4 4 3 2 2 5 6 6 7 6 6 7 7 7 8 8 7 7 7
19 19 20 21 21 21 20 20 19 18 16 15 15 15 14 13 13 12 11 11 11 11 12 11 10 8 8 9 8 8 9 9 8 7 8 9 8 7 4 4 4 2 1 2 4 7 11 11 10 10 8 8 9 11 12 11 11 10 8 6 5 4 3 4 5 5 6 6 6 6 5 5 5 5 7 7 5 6 6 7 7 6 6 7 9
19 19 20 21 21 21 20 20 19 18 17 16 16 16 15 15 14 14 13 12 11 12 12 11 10 9 9 9 9 9 8 9 8 6 6 8 9 8 5 4 5 2 1 1 2 7 9 9 9 9 9 8 10 11 11 10 9 8 7 5 4 2 2 3 4 6 8 9 9 9 8 7 7 5 6 6 5 5 6 7 6 5 7 8 8
20 19 19 21 21 20 20 21 19 19 18 17 17 17 16 16 15 15 14 14 12 12 12 11 10 9 9 9 10 9 8 7 7 6 6 8 9 9 7 6 6 3 2 0 2 4 7 8 8 7 8 8 9 10 10 9 8 7 5 4 3 2 2 3 5 6 8 10 11 11 11 10 9 7 6 6 6 5 6 7 6 6 7 7 8
21 20 20 21 21 19 19 20 20 19 18 17 17 17 16 16 15 15 14 14 13 13 12 11 10 10 10 9 9 9 7 7 5 5 6 7 9 9 8 8 7 4 1 1 0 2 5 7 6 5 6 7 8 8 9 8 7 6 4 3 2 2 2 3 4 5 6 8 10 11 11 12 10 8 7 6 7 7 7 6 5 6 7 7 8
20 20 21 22 22 19 18 20 19 18 18 17 17 17 17 16 16 15 14 14 13 12 12 11 9 9 10 9 9 9 7 6 5 5 5 6 8 10 8 7 7 6 3 0 1 0 3 5 5 4 4 6 6 6 7 6 5 4 3 2 1 1 1 1 2 4 5 5 5 8 10 11 10 9 8 6 7 7 7 6 5 6 7 8 8
19 19 22 23 22 20 18 19 18 17 17 16 17 17 17 17 16 16 15 14 14 13 12 11 10 9 9 9 8 9 7 6 5 5 6 5 6 8 8 8 8 7 5 2 2 1 2 3 3 3 2 3 5 4 5 4 4 4 2 1 1 2 1 0 2 4 6 7 5 5 7 9 8 9 9 7 6 7 7 6 6 6 7 8 8
19 18 21 23 23 21 19 19 17 15 15 14 15 16 16 16 16 16 16 15 15 14 13 12 11 10 10 9 8 8 7 6 5 5 6 5 5 5 6 7 8 7 6 4 3 4 4 4 3 3 3 3 3 3 3 3 4 3 2 2 1 2 1 1 3 5 7 9 6 4 5 6 7 9 9 6 7 7 7 6 7 7 8 9 8
19 18 19 21 22 20 19 19 17 16 14 13 12 13 14 14 14 14 14 15 14 14 14 12 12 11 10 9 8 8 7 6 5 5 5 5 4 3 3 5 7 7 6 6 4 5 6 6 5 5 5 3 2 3 3 3 3 2 1 1 2 2 2 2 3 5 8 9 6 3 4 6 8 10 8 7 7 7 7 7 8 8 8 8 7
19 17 17 18 20 19 18 18 17 16 15 13 12 11 11 11 11 11 12 12 12 12 12 12 12 11 11 9 8 8 8 7 6 5 5 4 4 3 3 3 5 5 5 7 7 6 6 6 6 7 7 4 2 3 3 3 2 1 1 2 3 3 3 3 3 5 7 7 5 3 4 6 9 10 8 8 8 7 7 8 8 8 9 8 7
17 17 16 16 17 17 16 16 16 15 14 14 13 12 11 10 9 10 10 10 10 10 11 11 11 11 10 9 9 8 8 7 6 5 4 4 3 4 4 3 4 4 3 6 8 8 7 7 6 7 7 5 3 4 4 4 3 3 3 3 4 4 4 3 3 5 7 6 4 2 4 8 10 10 8 8 9 8 8 9 9 9 8 8 8
14 13 13 14 15 16 15 14 14 13 13 13 13 12 11 10 10 9 9 9 9 9 9 10 10 10 9 10 9 9 9 9 8 6 5 5 4 4 5 4 4 4 3 4 6 7 8 7 7 7 7 5 5 5 5 5 4 5 5 5 6 6 5 4 4 6 7 5 3 1 4 9 10 10 8 9 9 8 9 10 10 9 8 8 9
11 9 9 10 11 13 13 13 13 12 12 12 12 12 11 10 10 10 9 8 8 8 9 9 10 10 9 10 10 10 9 9 9 8 7 6 5 4 4 4 5 5 4 4 5 5 7 7 7 7 7 6 6 6 6 6 6 7 8 8 7 7 5 4 5 6 7 5 2 1 4 8 10 10 8 9 10 9 11 12 10 9 8 7 8
9 8 6 6 8 9 10 11 11 12 12 13 13 13 12 11 10 10 10 9 9 9 10 10 10 10 10 10 10 11 10 10 9 9 9 8 6 6 5 5 5 5 5 5 5 5 7 8 8 7 8 8 7 7 7 8 8 9 10 10 9 7 6 5 5 6 7 5 1 1 4 8 10 10 7 9 11 10 11 12 10 9 8 8 8
8 7 5 4 5 7 8 9 10 12 13 14 14 15 15 13 12 11 10 11 10 10 11 11 11 11 11 10 10 11 11 11 10 10 10 10 8 7 7 6 5 6 5 5 5 6 7 9 9 9 10 10 9 8 8 10 10 11 11 11 10 9 7 6 5 5 6 4 1 2 4 7 9 9 7 9 11 10 11 11 10 9 8 9 9
8 7 4 3 5 6 8 9 9 11 13 14 14 15 16 15 13 13 12 12 12 12 12 12 13 12 12 12 11 11 11 12 11 11 12 11 10 9 9 8 7 6 6 6 7 6 7 9 10 11 11 11 10 10 10 11 12 12 12 12 12 10 9 8 7 6 6 5 2 2 4 7 8 8 7 10 12 11 11 10 9 9 9 9 10
9 6 4 5 6 8 9 10 11 11 13 13 14 13 14 15 14 14 14 13 13 13 13 14 14 14 14 13 13 12 12 12 12 12 13 13 12 11 10 10 9 8 7 8 9 8 7 8 10 11 12 12 12 12 12 13 13 14 13 13 13 12 11 10 8 8 7 6 4 4 5 7 8 8 8 10 13 12 11 10 9 10 9 9 10
10 6 3 4 6 9 11 12 13 13 12 13 13 12 12 15 15 15 15 15 15 15 15 15 14 15 15 14 14 14 13 12 13 13 13 13 13 13 13 12 11 10 10 10 10 10 9 9 10 11 12 13 14 14 14 14 15 15 15 15 14 13 12 11 10 9 9 8 7 6 6 8 9 8 8 9 12 13 12 11 10 10 9 8 9
11 9 5 1 3 8 12 14 14 14 12 12 13 13 13 16 17 16 17 17 16 16 16 16 15 15 15 16 15 15 14 13 13 13 14 14 14 14 14 14 13 12 12 12 12 12 11 11 11 12 12 13 14 15 15 16 16 16 16 16 15 14 13 13 11 10 10 10 9 7 7 8 9 8 8 9 11 14 13 11 11 10 9 8 9
12 10 6 3 5 9 13 16 16 14 12 10 11 13 15 17 18 18 19 19 18 18 18 17 17 17 16 16 17 16 15 15 14 14 14 14 14 14 15 15 15 14 14 13 13 13 13 12 12 12 13 13 14 15 15 16 16 16 16 16 16 15 14 13 13 12 13 12 10 9 9 8 8 9 10 9 10 13 14 12 11 11 10 9 9
12 11 11 7 5 12 16 19 19 16 13 10 8 13 17 19 20 19 20 20 20 20 20 19 19 18 18 18 18 18 17 16 15 15 15 15 15 15 15 15 15 15 16 15 15 15 15 14 14 13 13 14 14 15 15 16 16 16 16 16 16 15 14 14 14 14 15 15 12 10 10 10 8 9 11 10 10 12 13 12 12 11 10 10 9
12 14 14 10 6 12 16 18 19 18 18 13 9 13 18 21 21 20 20 21 21 21 21 21 21 21 20 19 19 19 18 17 16 16 16 16 16 15 15 15 15 16 16 17 16 16 17 17 16 15 15 15 15 15 15 15 15 15 15 15 15 15 14 13 14 15 15 15 13 11 11 11 10 11 11 10 10 12 12 12 12 12 10 10 11
11 12 11 4 3 7 9 12 15 16 19 17 13 15 18 19 21 21 20 21 21 22 23 22 21 21 20 20 20 20 20 20 18 17 17 17 17 16 16 15 15 14 15 16 17 17 18 19 18 17 16 15 16 15 14 15 16 15 15 15 15 14 14 13 14 16 16 14 13 12 12 13 12 11 11 10 11 12 13 13 13 12 11 11 12
9 9 8 5 4 5 6 9 11 14 17 18 17 17 18 17 19 21 21 20 20 22 23 22 22 20 20 20 20 20 21 22 20 19 17 17 17 17 17 17 15 14 13 14 15 17 18 20 20 19 18 17 18 17 15 16 17 17 16 15 16 15 13 14 15 16 16 15 13 13 13 13 13 12 11 11 11 12 13 15 14 14 13 13 12
7 6 4 3 2 4 5 6 8 12 15 18 18 18 17 17 18 20 21 20 20 21 22 22 22 21 19 19 19 20 21 22 22 21 20 19 18 18 18 17 15 14 13 13 14 15 18 20 20 21 20 19 20 19 18 18 18 18 17 16 16 15 13 14 15 15 16 15 13 13 13 13 14 13 12 11 11 12 14 15 15 14 14 13 12
4 3 3 2 1 2 3 4 5 8 11 14 16 17 18 17 17 18 20 20 20 21 22 22 22 21 20 18 18 18 20 22 22 22 22 21 20 19 18 17 15 14 14 14 14 15 17 19 21 22 22 22 22 21 20 20 19 19 18 17 16 14 14 15 15 15 16 14 13 13 13 14 14 14 13 12 12 12 13 14 14 14 14 13 12
3 4 4 4 4 4 4 4 4 6 8 10 12 15 17 17 16 16 18 19 19 20 21 22 21 21 21 19 17 17 19 21 22 22 23 23 22 20 18 16 15 15 15 14 15 16 17 19 21 22 23 24 23 21 21 21 21 20 18 18 16 14 15 15 15 16 15 13 12 13 13 14 14 14 13 12 12 12 12 13 13 13 13 13 12
10 8 7 6 6 6 5 5 5 6 6 8 9 11 13 14 15 17 17 18 19 19 20 21 21 21 22 21 19 17 18 20 21 22 23 23 23 21 19 17 16 16 15 15 15 16 17 19 21 22 24 24 21 20 21 21 20 19 18 18 16 14 15 15 15 16 14 12 13 14 14 14 14 13 12 12 12 12 12 12 11 12 12 12 12
16 14 12 9 8 7 6 6 5 5 5 6 7 8 10 11 13 14 15 17 18 19 20 21 21 21 22 22 21 19 18 20 21 22 22 22 22 21 20 18 18 17 16 16 15 16 17 17 19 22 22 19 17 19 21 21 21 20 20 20 16 15 16 15 15 15 12 13 13 14 15 14 14 13 12 12 12 12 12 11 11 12 12 12 12
23 19 17 13 10 9 8 8 7 6 5 4 5 6 7 9 11 11 13 15 17 19 20 21 21 21 22 22 22 21 20 21 21 22 21 21 21 20 19 17 17 18 18 18 17 16 17 16 16 18 19 16 16 18 19 18 19 21 22 21 17 15 15 15 15 13 12 13 14 15 14 13 13 12 11 11 11 12 11 11 11 12 12 12 12
25 23 22 19 16 13 11 10 9 9 9 9 7 4 4 6 9 10 12 14 15 17 18 20 21 22 23 23 22 22 22 21 21 21 22 22 21 20 18 17 17 17 19 20 20 18 17 16 14 15 18 18 18 21 19 17 17 21 23 20 16 14 14 14 14 11 11 14 15 15 14 13 13 12 11 11 11 11 10 11 11 11 11 11 11
27 26 25 23 21 18 15 13 10 8 8 9 9 7 4 3 4 6 8 10 13 15 17 19 21 22 23 23 22 22 23 22 22 22 23 23 23 22 21 19 18 18 19 20 21 20 17 14 12 12 17 19 19 20 19 15 13 15 16 13 11 11 11 12 12 11 12 14 15 15 15 14 13 12 11 12 12 11 11 11 11 11 10 10 10
28 28 27 25 23 21 19 17 14 11 10 9 8 7 6 5 4 4 6 7 8 10 14 18 20 21 22 22 22 23 24 23 23 23 24 24 24 24 23 22 20 19 19 19 20 20 17 13 11 12 15 18 19 17 14 12 10 11 11 7 5 6 7 8 10 11 13 15 16 16 15 15 13 12 12 13 13 12 11 11 11 11 11 10 10
27 27 27 25 24 23 21 19 17 15 13 11 10 9 8 6 5 5 6 6 6 7 10 13 15 17 17 19 21 23 24 24 24 24 25 25 25 25 24 24 22 21 21 19 19 19 17 15 15 15 16 17 19 16 13 14 14 12 8 4 2 2 3 5 8 11 13 15 16 16 16 16 15 13 13 14 14 13 12 11 11 11 11 11 10
24 24 23 23 23 22 22 20 19 17 15 13 12 12 10 9 8 7 6 6 6 7 8 9 12 15 16 17 19 21 22 23 24 25 25 25 25 26 25 24 23 22 22 21 21 20 19 19 19 19 18 18 17 14 12 16 17 13 6 1 1 1 1 3 6 10 13 14 16 16 17 17 17 16 16 15 14 14 13 12 11 10 11 11 10
21 21 20 20 21 21 20 19 18 17 15 14 12 12 11 11 11 10 10 9 9 9 10 10 11 13 16 17 17 17 18 18 19 21 23 24 25 26 26 26 25 24 23 22 23 22 20 21 21 21 21 20 18 14 12 15 19 20 14 5 2 1 1 2 3 7 12 14 15 17 17 18 18 18 17 16 15 14 14 13 12 11 11 11 11
18 18 18 19 20 20 19 18 18 17 16 14 13 13 13 12 12 13 12 12 11 11 12 12 11 12 13 15 16 17 18 17 16 17 19 21 23 25 26 27 27 26 24 22 23 23 22 22 22 22 22 21 19 16 15 15 17 21 20 12 6 3 2 3 2 2 6 11 14 17 17 18 19 18 17 17 16 15 15 14 13 12 11 11 11
16 16 18 18 19 18 18 18 18 17 17 16 15 16 16 15 14 14 13 14 13 13 13 13 12 12 12 12 13 15 16 17 17 18 18 19 20 23 26 27 27 27 26 24 23 24 23 23 23 23 23 21 20 19 18 16 15 17 20 18 13 9 6 4 3 1 1 5 10 14 15 16 17 18 18 18 17 16 15 14 13 12 12 11 11
15 17 17 17 16 16 16 16 16 17 16 16 16 17 18 18 17 16 15 14 14 13 14 13 14 14 14 14 14 15 15 15 16 17 19 20 20 21 23 25 27 28 26 25 26 25 22 21 23 23 22 21 22 22 21 19 17 19 21 19 16 15 12 9 7 5 2 1 4 7 10 13 15 17 18 17 17 16 15 14 13 12 12 12 11
15 16 15 15 14 15 15 15 16 16 16 16 16 16 17 17 18 18 17 16 15 15 14 14 14 15 15 16 16 17 17 16 15 15 16 18 20 22 23 24 26 27 26 26 27 26 22 20 22 24 23 21 22 23 23 22 23 23 22 18 15 15 13 11 10 7 5 3 3 2 4 7 10 14 16 17 16 16 14 13 12 12 11 11 10
13 12 12 11 11 12 13 14 16 16 16 16 16 16 16 17 18 19 19 20 20 20 18 17 16 15 15 16 17 17 17 17 16 15 14 14 16 20 24 25 25 26 26 26 27 26 24 22 22 24 23 20 21 23 23 24 24 25 24 21 18 15 11 7 8 8 5 3 4 2 3 5 4 7 12 15 16 15 14 13 12 12 12 11 9
11 10 10 10 10 10 11 13 15 15 15 15 15 16 17 17 18 19 20 20 21 22 23 22 21 18 16 15 16 16 16 17 17 15 15 15 15 17 20 24 25 25 25 25 26 27 26 25 23 23 22 21 22 23 24 24 24 25 26 26 25 22 17 12 12 14 9 4 3 2 4 6 4 4 7 11 14 14 14 13 12 12 11 10 9
Wind_Direction
173 168 169 166 163 162 163 161 158 153 153 152 151 155 152 151 152 152 151 152 152 153 152 150 147 140 138 135 137 139 144 149 152 155 156 156 153 152 151 150 152 154 155 153 154 156 161 161 156 157 156 150 145 139 134 131 127 127 127 125 123 121 115 109 108 111 116 121 125 128 132 129 129 126 121 119 114 108 114 125 135 145 144 127 118
166 166 167 164 165 162 162 160 159 155 155 156 156 159 157 156 155 155 153 153 153 153 153 150 147 141 138 134 136 139 144 146 146 147 146 149 152 155 155 154 157 157 156 157 158 161 168 164 160 166 163 153 146 143 138 135 132 130 129 125 120 115 110 108 110 112 115 122 125 130 134 132 132 129 123 121 115 99 111 126 135 137 119 107 101
158 161 166 164 167 164 163 161 160 157 158 158 158 160 159 159 156 156 155 153 153 152 153 150 147 141 137 134 136 140 144 144 141 141 140 144 151 157 156 156 159 158 159 162 164 169 175 166 166 173 164 154 148 141 138 136 132 129 128 126 123 120 119 119 117 115 115 121 129 139 140 138 140 135 129 130 119 99 118 133 131 123 111 104 94
157 159 164 164 169 168 166 162 160 159 159 158 157 158 159 163 161 159 157 156 155 154 155 151 146 139 135 133 135 139 142 142 140 140 140 142 147 152 153 155 158 160 162 165 172 177 176 172 174 172 161 154 148 136 133 132 129 129 130 128 125 123 122 124 123 121 121 127 143 151 145 145 146 140 142 142 122 105 123 136 136 127 114 102 98
161 159 165 168 172 174 173 168 163 161 159 159 159 161 163 168 168 167 161 159 159 157 156 150 144 138 134 133 134 136 138 139 138 137 140 143 144 143 148 156 160 162 164 171 180 179 176 178 176 165 152 145 138 131 130 132 131 131 128 123 119 116 112 113 117 121 128 136 147 154 156 158 153 153 157 142 122 115 130 139 137 124 111 103 113
168 164 170 173 175 178 179 176 171 166 162 162 164 166 169 171 172 169 162 156 157 157 153 149 143 138 136 136 137 137 134 133 132 133 139 146 149 145 149 155 158 160 168 185 183 176 179 175 162 149 139 134 131 129 134 137 132 128 125 119 118 116 112 110 109 114 123 136 146 156 170 169 165 170 155 132 123 120 134 140 130 119 111 114 127
175 171 175 175 176 176 177 178 172 169 166 166 168 169 170 170 168 161 155 150 153 154 151 149 143 140 139 139 140 139 135 129 129 130 134 141 145 145 146 144 149 157 179 194 181 174 175 154 139 133 129 128 131 135 143 141 132 129 126 123 124 124 119 117 115 115 115 124 141 156 164 166 172 172 142 133 130 125 137 137 127 123 119 120 125
177 177 178 177 174 173 174 176 172 172 170 171 170 170 170 166 160 154 151 148 150 151 151 151 145 143 141 141 142 139 134 129 128 124 126 137 140 136 136 143 152 164 191 191 168 167 154 136 129 127 128 132 140 146 145 139 134 132 132 133 136 132 126 122 122 125 122 117 126 148 156 160 164 158 146 144 136 133 140 133 124 125 126 122 118
176 178 180 180 177 174 176 177 175 174 172 171 170 169 167 162 159 154 153 153 153 151 152 153 149 148 144 141 141 136 129 126 124 117 123 138 142 137 136 146 154 164 184 168 156 155 136 128 129 128 132 141 148 146 138 135 134 134 135 142 144 143 139 132 139 151 147 133 125 138 160 166 165 160 156 151 146 143 142 140 132 130 131 124 120
175 177 181 182 180 178 178 179 177 175 173 170 168 170 166 163 160 155 156 157 157 155 155 158 158 157 150 145 142 137 131 127 125 127 137 146 146 139 141 146 152 159 137 142 157 144 130 130 131 129 136 145 142 134 130 131 133 137 138 142 144 150 159 156 171 193 195 188 178 182 195 189 180 167 162 163 161 151 146 152 146 138 133 128 129
176 179 181 182 181 180 180 181 179 176 174 171 169 169 167 165 161 158 158 159 161 160 160 163 164 162 155 148 145 144 140 140 151 160 154 156 153 139 140 141 137 152 112 127 152 137 131 134 132 130 137 141 135 129 128 129 134 139 142 148 151 155 178 184 201 226 233 234 238 232 225 221 211 185 170 170 167 155 152 154 146 134 129 132 132
178 182 181 182 183 182 182 182 181 178 176 174 171 170 169 167 164 162 162 163 166 164 163 165 167 165 156 150 150 150 149 155 171 180 164 163 161 143 139 148 137 164 274 106 140 146 139 133 132 135 140 143 138 135 134 133 136 141 150 163 172 184 206 226 249 253 252 251 253 250 240 234 228 215 188 172 166 162 156 152 143 131 133 136 134
178 184 183 183 184 184 184 183 183 180 180 178 173 171 170 169 166 166 166 168 169 167 164 164 170 167 158 155 156 157 158 162 172 182 179 174 173 159 154 167 157 154 262 189 122 150 144 132 137 142 144 149 144 144 144 141 143 146 160 172 181 206 229 251 269 270 269 263 257 257 250 243 237 225 210 179 170 169 159 153 144 138 140 141 137
177 182 183 184 185 186 185 185 185 183 183 179 175 172 170 170 168 168 169 170 169 167 164 166 173 169 161 161 163 163 166 169 173 181 186 183 182 180 173 173 167 150 163 213 86 140 157 149 151 152 149 154 154 154 154 152 152 153 169 179 187 211 237 252 271 292 295 279 260 255 248 246 241 221 214 190 173 173 163 158 152 148 146 146 140
176 177 180 184 186 187 185 186 186 185 184 180 176 173 171 171 170 170 171 171 170 167 165 170 178 172 166 168 170 168 171 174 177 182 177 176 181 187 187 178 176 173 159 183 322 182 185 178 167 164 162 166 166 165 160 158 156 154 166 166 211 252 250 245 298 320 321 312 272 252 243 240 235 211 210 200 176 175 170 168 164 154 150 149 142
177 173 177 182 186 188 185 185 186 185 184 181 177 174 174 173 172 174 173 174 171 169 170 174 179 175 169 171 177 175 174 177 178 176 165 162 173 186 194 187 181 182 167 164 273 251 215 216 196 176 187 187 179 178 170 164 157 153 147 124 326 328 5 68 334 331 326 327 311 260 238 228 217 200 206 200 178 182 177 172 166 156 154 151 143
180 175 178 182 186 188 186 184 184 183 183 183 179 176 177 176 177 178 176 176 171 170 173 175 179 176 173 175 181 180 174 179 180 173 164 160 167 181 195 195 190 191 185 182 229 248 243 248 246 224 226 222 190 190 188 173 158 149 118 74 8 3 39 27 334 334 334 329 320 282 236 216 200 194 202 191 180 185 178 175 166 157 158 154 147
184 180 180 184 187 188 188 185 180 180 183 182 182 182 183 183 181 181 179 176 172 174 174 175 181 178 177 177 179 181 175 178 181 174 166 162 168 175 187 202 200 200 206 200 210 242 250 251 253 255 251 245 200 202 213 186 163 151 94 42 351 1 16 1 342 334 336 332 323 294 232 211 195 193 197 187 184 183 178 179 170 160 163 162 154
186 185 183 187 189 189 188 185 181 181 183 180 181 184 190 192 187 187 184 178 177 179 177 178 183 179 176 175 175 180 178 177 180 175 172 172 174 178 189 210 205 203 215 214 216 235 250 248 248 262 264 255 218 216 231 209 189 227 300 322 320 345 1 349 337 330 330 329 323 289 220 209 197 194 192 186 187 184 182 182 174 166 166 169 165
187 186 186 191 191 190 189 187 183 183 186 181 179 181 188 197 195 197 192 185 186 185 184 186 186 181 179 177 177 183 182 178 180 179 179 184 188 198 215 222 208 208 219 223 227 236 249 250 246 256 259 252 237 235 238 230 228 256 277 291 308 332 350 330 314 325 328 327 318 282 211 208 200 197 193 186 188 185 181 178 176 172 169 176 175
185 185 188 191 191 191 190 190 187 188 192 186 183 180 184 194 198 204 202 199 199 195 195 195 190 185 185 182 184 192 187 184 185 183 185 187 197 214 231 235 213 207 219 228 233 241 249 252 249 248 245 245 244 244 243 243 252 267 278 290 307 324 335 320 308 327 333 335 328 277 207 208 205 203 196 186 188 185 179 176 177 176 176 180 178
179 177 186 189 189 190 191 191 189 192 196 194 192 187 186 194 200 204 205 207 210 207 206 203 196 192 195 191 192 200 195 194 195 190 190 191 196 206 223 239 223 212 222 235 234 241 250 250 249 244 240 247 247 245 248 251 262 274 283 294 306 318 327 316 309 329 339 346 352 250 207 207 209 211 203 187 186 185 182 178 178 180 183 184 180
170 168 176 185 188 188 190 193 192 196 201 200 200 195 191 197 202 204 208 209 210 213 212 209 203 202 206 201 201 207 204 204 206 200 197 198 199 200 211 230 232 226 231 244 244 239 243 246 245 244 244 248 249 249 253 257 267 278 285 295 303 311 322 319 311 324 339 345 350 252 212 206 211 213 204 185 185 188 185 180 182 186 188 190 188
153 150 148 172 190 192 194 198 201 202 206 207 206 203 197 200 204 206 213 211 209 215 216 214 210 210 213 211 209 212 212 208 212 210 205 206 204 201 210 221 228 235 239 249 257 251 245 244 242 242 245 247 251 254 258 263 269 279 285 292 299 305 313 318 313 315 328 330 307 266 225 208 211 214 203 185 186 191 188 186 188 192 192 193 195
127 127 133 168 196 208 208 208 212 212 214 215 214 211 203 202 206 209 215 214 212 215 219 219 216 216 219 220 219 219 217 211 213 216 213 214 211 208 213 218 223 231 242 249 258 259 253 250 249 247 250 253 256 258 262 267 271 277 283 288 294 299 304 312 312 306 312 310 280 262 237 215 213 217 209 189 188 193 194 194 193 197 200 196 199
103 114 140 175 196 216 221 219 223 223 222 221 221 222 213 208 210 213 215 216 217 217 221 225 223 222 223 225 226 228 226 214 213 217 219 220 219 217 217 220 225 229 240 250 255 258 256 255 256 254 257 260 260 260 262 267 272 277 280 284 290 293 296 303 310 310 309 306 282 258 242 223 218 221 213 192 188 194 195 196 198 200 204 201 199
93 98 122 176 200 216 224 226 229 232 228 225 225 227 224 219 217 219 221 219 219 221 222 226 229 228 228 229 230 234 234 223 217 218 223 223 223 223 222 223 226 229 236 247 254 258 258 256 256 257 260 262 262 262 262 265 271 277 280 283 287 289 292 298 305 311 311 310 295 264 244 229 226 227 216 194 188 194 197 197 202 201 202 207 202
95 91 79 81 237 230 231 234 233 234 232 229 230 228 228 229 225 222 226 225 223 223 224 225 230 233 234 234 235 239 240 234 227 225 228 228 227 228 228 227 228 231 235 244 254 258 260 260 261 263 264 265 265 265 265 265 269 275 280 282 284 286 290 294 298 306 310 312 303 273 250 235 235 238 223 202 188 193 201 201 200 201 206 211 206
105 111 125 172 239 240 235 233 231 233 233 231 236 236 233 233 230 225 227 230 227 226 227 226 228 233 236 236 236 240 241 240 238 235 234 236 236 235 235 233 233 234 236 244 254 261 265 264 264 267 270 272 272 272 271 270 270 274 278 280 282 284 288 288 290 298 304 306 301 280 259 242 240 246 231 212 194 194 203 202 200 203 209 212 209
135 156 173 172 214 237 232 224 221 220 218 216 235 247 242 238 237 232 229 232 230 230 231 232 231 232 235 236 237 240 242 243 244 243 241 242 243 242 242 241 239 238 240 245 253 263 268 268 268 269 271 274 275 277 279 277 274 273 276 278 280 282 284 284 287 294 298 297 293 281 264 249 242 243 231 217 204 200 204 203 202 206 211 215 215
171 189 185 154 162 223 231 225 215 208 207 206 219 236 235 237 240 238 236 235 234 234 235 237 238 238 238 238 237 240 244 245 245 246 245 246 247 247 248 246 246 245 245 248 252 259 265 269 272 272 273 276 276 276 279 281 279 276 277 278 281 282 280 281 286 291 295 292 283 274 262 252 247 240 230 220 211 208 208 206 206 210 214 218 219
193 212 206 172 161 219 234 230 216 208 211 214 221 227 224 228 236 239 242 241 238 238 240 242 244 245 245 243 241 241 245 248 247 246 246 246 249 252 252 251 253 252 251 253 255 258 264 269 272 273 276 279 279 276 277 282 282 281 281 283 286 284 278 281 287 291 295 290 276 267 257 250 250 243 230 223 218 214 213 212 211 214 219 221 220
206 223 234 277 287 240 230 227 217 215 221 227 232 230 221 222 233 240 243 244 242 242 243 247 250 251 252 252 249 245 246 250 251 249 248 246 249 252 254 256 257 259 261 260 260 261 264 268 271 272 273 274 276 277 278 280 282 285 287 289 292 286 280 283 287 294 297 288 272 261 252 246 248 245 233 224 223 220 217 218 217 218 221 221 220
221 234 255 285 269 232 234 234 224 223 231 238 241 237 228 223 231 238 243 246 246 246 247 249 253 256 257 256 255 251 248 250 252 252 250 248 248 250 253 257 259 262 266 268 270 269 267 269 271 271 271 271 272 276 279 279 281 286 290 293 295 288 282 285 290 298 297 283 268 257 248 243 246 246 237 227 225 223 221 223 220 219 221 220 221
234 275 318 350 331 291 283 267 252 244 242 246 250 248 243 235 231 237 244 247 249 251 252 252 255 258 258 257 257 255 250 250 252 252 251 250 249 249 253 256 259 262 266 270 275 276 275 272 271 271 271 270 270 274 278 281 284 286 291 298 298 289 283 286 291 299 295 277 261 254 245 240 244 246 241 234 229 225 223 226 224 221 222 220 222
36 17 10 14 359 351 333 308 298 286 271 264 261 256 255 252 246 247 249 249 252 255 256 257 260 261 261 260 258 255 250 249 251 251 252 251 250 251 254 257 258 259 263 268 272 279 281 278 275 271 269 268 269 272 277 282 283 284 291 298 298 290 284 286 291 296 290 270 255 252 244 237 241 244 244 240 234 229 226 228 228 226 225 221 221
47 42 41 40 35 27 9 349 330 317 305 286 274 265 264 264 260 256 255 253 254 258 261 261 263 263 262 261 258 254 250 248 248 249 250 251 252 253 255 256 255 255 256 258 261 266 271 276 277 273 269 268 269 273 278 282 281 282 290 297 296 288 284 284 289 292 282 259 247 245 239 234 237 241 244 244 240 235 231 232 234 233 231 228 223
57 53 51 53 56 49 35 23 4 343 326 300 289 279 270 266 262 259 258 258 259 263 264 262 264 265 264 262 259 254 249 247 247 246 246 247 250 253 256 255 254 253 250 248 249 252 255 262 271 275 273 268 269 273 272 275 281 286 292 295 291 284 281 281 284 286 272 250 240 236 233 231 235 239 243 246 243 237 235 237 239 238 237 236 232
66 64 62 63 62 54 44 45 47 41 27 356 322 293 273 266 264 262 258 257 261 263 263 264 266 267 266 264 260 256 252 248 247 245 243 243 245 249 252 252 253 255 251 246 244 246 245 245 256 272 275 268 267 267 262 264 275 282 289 290 283 275 272 273 278 277 260 244 236 231 230 230 232 237 242 245 244 239 238 239 240 240 240 241 241
71 71 71 70 67 61 53 51 50 45 42 39 29 354 295 274 269 265 259 257 260 261 260 264 268 270 270 268 264 261 258 253 250 248 246 245 245 247 247 245 246 249 250 248 246 245 241 235 238 254 265 265 261 261 259 258 264 274 283 282 272 265 260 260 268 267 249 239 234 230 230 231 232 236 242 244 244 243 243 242 241 243 243 242 245
70 71 72 70 69 68 63 57 52 43 38 38 37 32 13 336 295 279 276 273 272 270 266 265 266 269 270 269 268 267 265 259 256 254 252 250 249 250 248 245 240 238 243 247 248 249 245 238 231 236 252 256 254 253 253 253 262 273 275 266 254 251 250 253 257 251 238 233 231 232 233 233 235 237 243 248 248 247 249 248 245 245 246 244 244
68 69 70 69 69 68 66 62 58 55 49 40 38 34 26 14 338 309 306 301 296 288 280 274 270 270 271 270 272 272 268 264 260 258 256 253 252 252 252 249 243 235 234 240 244 246 243 237 227 221 236 248 252 247 237 236 247 257 256 240 231 235 237 244 243 236 232 230 231 232 234 237 239 241 246 250 252 252 253 253 250 248 248 246 244
71 71 72 72 71 69 67 65 60 58 54 49 45 38 30 18 355 339 330 322 321 311 297 288 278 275 276 275 273 272 268 266 265 263 261 258 255 255 255 254 249 240 234 232 235 236 229 225 221 217 223 238 252 250 235 231 230 238 254 246 206 204 218 233 229 225 225 227 230 232 235 239 241 246 249 250 254 255 255 256 255 251 249 248 246
75 74 74 73 72 71 70 68 65 63 59 57 55 50 47 40 30 22 14 2 351 340 324 306 288 279 276 275 276 275 272 270 270 268 266 263 259 258 259 256 251 246 241 235 233 229 219 217 220 219 218 223 238 242 234 233 226 219 227 236 153 164 197 227 218 222 225 226 230 232 236 239 241 246 250 250 254 257 257 259 261 257 252 248 246
77 76 76 75 75 74 73 71 70 67 64 63 61 58 53 46 42 39 35 26 16 9 358 341 319 299 290 288 290 290 285 280 278 276 272 268 263 261 261 259 255 250 245 240 240 238 226 222 222 220 219 219 225 226 219 226 227 222 218 200 127 153 215 208 196 224 228 228 232 233 235 238 240 245 248 249 252 256 258 261 263 262 255 248 247
76 79 80 78 77 75 72 70 67 65 62 58 56 54 50 47 41 38 33 25 20 15 5 354 343 328 316 309 305 302 296 290 286 283 280 274 267 263 262 262 260 256 250 245 244 243 235 228 225 221 220 221 224 223 220 222 226 229 231 227 213 199 171 147 142 231 232 229 233 235 236 237 239 243 244 246 250 254 258 261 263 263 261 254 249
77 81 79 75 72 69 65 61 57 54 50 46 44 43 44 45 43 39 34 27 21 13 7 3 358 352 345 336 330 324 314 302 292 286 282 279 274 268 265 262 262 262 258 252 245 241 237 233 230 226 223 221 220 220 223 221 217 225 235 236 229 220 211 188 177 172 234 231 232 232 235 236 239 242 243 245 249 253 256 257 260 262 262 256 250
76 75 72 67 62 57 52 49 45 41 38 34 33 33 35 37 38 39 35 28 20 12 12 13 8 5 360 355 352 347 341 329 314 301 290 282 278 274 270 266 264 263 258 254 250 246 240 235 234 233 228 221 217 218 220 215 208 214 224 230 231 226 227 227 216 204 180 212 236 230 230 233 237 242 244 245 247 250 251 251 254 259 260 256 249
69 64 61 56 49 43 37 34 33 30 26 23 23 24 26 27 29 30 29 24 19 15 17 19 16 12 8 4 1 356 352 346 337 327 313 296 283 276 274 270 265 262 256 252 254 252 245 237 234 235 231 223 218 218 218 213 211 215 216 219 226 225 223 224 220 210 193 208 237 235 227 230 237 242 243 242 242 244 244 244 248 252 256 256 249
76 70 63 54 42 34 28 26 27 25 23 21 19 19 21 21 22 23 22 19 15 12 12 14 15 14 10 7 4 2 359 351 344 336 328 317 296 280 274 269 266 265 260 254 253 252 249 243 236 235 234 229 223 221 221 218 217 219 218 213 212 213 210 208 209 200 188 214 233 238 229 221 228 238 237 235 236 238 239 239 244 248 251 254 247
99 94 82 67 55 46 35 30 26 20 17 18 20 21 22 22 22 22 20 18 15 11 8 8 8 8 7 3 0 360 358 355 349 338 329 322 305 286 276 271 268 264 260 257 253 251 252 250 244 239 235 232 231 227 225 223 220 221 222 217 211 210 210 207 207 203 196 195 209 240 237 222 227 230 227 231 233 236 238 239 242 246 250 252 245